User: anonymous   Login
Location: Columbia
(38.9520°N, 92.3340°W)
Time: 18:56:35
(UTC-06:00)
Language:

Iridium 52 - Orbit

View from above orbital plane
View from above orbital plane
View from above satellite
View from above satellite

Ground track
Ground track

The orbit data is extracted from the following two-line orbital elements,

1 25169U 98010A   14326.46928190  .00000457  00000-0  15600-3 0  7748
2 25169 086.3974 022.3288 0002225 108.4491 025.3474 14.34218058877378
Epoch (UTC): 22 November 2014 11:15:45
Eccentricity: 0.0002225
inclination: 86.3974°
perigee height: 776 km
apogee height: 779 km
right ascension of ascending node: 22.3288°
argument of perigee: 108.4491°
revolutions per day: 14.34218058
mean anomaly at epoch: 25.3474°
orbit number at epoch: 87737

The dashed part of the orbit path shows where the satellite is in the earth's shadow,  

DLR